29.03.2024;08:15;13,10
29.03.2024;08:00;13,10
29.03.2024;07:45;13,10
29.03.2024;07:30;13,09
29.03.2024;07:15;13,10
29.03.2024;07:00;13,10
29.03.2024;06:45;13,10
29.03.2024;06:30;13,09
29.03.2024;06:15;13,11
29.03.2024;06:00;13,10
29.03.2024;05:45;13,10
29.03.2024;05:30;13,09
29.03.2024;05:15;13,10
29.03.2024;05:00;13,11
29.03.2024;04:45;13,10
29.03.2024;04:30;13,10
29.03.2024;04:15;13,11
29.03.2024;04:00;13,11
29.03.2024;03:45;13,10
29.03.2024;03:30;13,10
29.03.2024;03:15;13,11
29.03.2024;03:00;13,11
29.03.2024;02:45;13,11
29.03.2024;02:30;13,10
29.03.2024;02:15;13,11
29.03.2024;02:00;13,11
29.03.2024;01:45;13,11
29.03.2024;01:30;13,10
29.03.2024;01:15;13,11
29.03.2024;01:00;13,11
29.03.2024;00:45;13,11
29.03.2024;00:30;13,10
29.03.2024;00:15;13,11
29.03.2024;00:00;13,11
28.03.2024;23:45;13,11
28.03.2024;23:30;13,10
28.03.2024;23:15;13,11
28.03.2024;23:00;13,11
28.03.2024;22:45;13,11
28.03.2024;22:30;13,11
28.03.2024;22:15;13,11
28.03.2024;22:00;13,12
28.03.2024;21:45;13,11
28.03.2024;21:30;13,11
28.03.2024;21:15;13,12
28.03.2024;21:00;13,11
28.03.2024;20:45;13,11
28.03.2024;20:30;13,11
28.03.2024;20:15;13,12
28.03.2024;20:00;13,12
28.03.2024;19:45;13,11
28.03.2024;19:30;13,11
28.03.2024;19:15;13,12
28.03.2024;19:00;13,12
28.03.2024;18:45;13,12
28.03.2024;18:30;13,11
28.03.2024;18:15;13,12
28.03.2024;18:00;13,12
28.03.2024;17:45;13,12
28.03.2024;17:30;13,12
28.03.2024;17:15;13,13
28.03.2024;17:00;13,13
28.03.2024;16:45;13,13
28.03.2024;16:30;13,13
28.03.2024;16:15;13,15
28.03.2024;16:00;13,15
28.03.2024;15:45;13,15
28.03.2024;15:30;13,16
28.03.2024;15:15;13,18
28.03.2024;15:00;13,19
28.03.2024;14:45;13,20
28.03.2024;14:30;13,21
28.03.2024;14:15;13,24
28.03.2024;14:00;13,26
28.03.2024;13:45;13,28
28.03.2024;13:30;13,31
28.03.2024;13:15;13,36
28.03.2024;13:00;13,41
28.03.2024;12:45;13,48
28.03.2024;12:30;13,59
28.03.2024;12:15;14,34
28.03.2024;12:00;13,11
28.03.2024;11:45;13,11
28.03.2024;11:30;13,10
28.03.2024;11:15;13,11
28.03.2024;11:00;13,11
28.03.2024;10:45;13,11
28.03.2024;10:30;13,10
28.03.2024;10:15;13,11
28.03.2024;10:00;13,11
28.03.2024;09:45;13,11
28.03.2024;09:30;13,10
28.03.2024;09:15;13,11
28.03.2024;09:00;13,11
28.03.2024;08:45;13,11
28.03.2024;08:30;13,10
28.03.2024;08:15;13,11
28.03.2024;08:00;13,11
28.03.2024;07:45;13,11
28.03.2024;07:30;13,10
28.03.2024;07:15;13,12
28.03.2024;07:00;13,11
28.03.2024;06:45;13,11
28.03.2024;06:30;13,11
28.03.2024;06:15;13,12
28.03.2024;06:00;13,12
28.03.2024;05:45;13,11
28.03.2024;05:30;13,10
28.03.2024;05:15;13,12
28.03.2024;05:00;13,11
28.03.2024;04:45;13,11
28.03.2024;04:30;13,10
28.03.2024;04:15;13,12
28.03.2024;04:00;13,11
28.03.2024;03:45;13,11
28.03.2024;03:30;13,10
28.03.2024;03:15;13,12
28.03.2024;03:00;13,12
28.03.2024;02:45;13,11
28.03.2024;02:30;13,11
28.03.2024;02:15;13,12
28.03.2024;02:00;13,12
28.03.2024;01:45;13,11
28.03.2024;01:30;13,11
28.03.2024;01:15;13,12
28.03.2024;01:00;13,12
28.03.2024;00:45;13,11
28.03.2024;00:30;13,11
28.03.2024;00:15;13,12
28.03.2024;00:00;13,12
27.03.2024;23:45;13,11
27.03.2024;23:30;13,11
27.03.2024;23:15;13,12
27.03.2024;23:00;13,12
27.03.2024;22:45;13,11
27.03.2024;22:30;13,11
27.03.2024;22:15;13,12
27.03.2024;22:00;13,12
27.03.2024;21:45;13,12
27.03.2024;21:30;13,11
27.03.2024;21:15;13,12
27.03.2024;21:00;13,12
27.03.2024;20:45;13,11
27.03.2024;20:30;13,11
27.03.2024;20:15;13,12
27.03.2024;20:00;13,12
27.03.2024;19:45;13,11
27.03.2024;19:30;13,11
27.03.2024;19:15;13,12
27.03.2024;19:00;13,12
27.03.2024;18:45;13,11
27.03.2024;18:30;13,11
27.03.2024;18:15;13,12
27.03.2024;18:00;13,12
27.03.2024;17:45;13,12
27.03.2024;17:30;13,12
27.03.2024;17:15;13,12
27.03.2024;17:00;13,12
27.03.2024;16:45;13,12
27.03.2024;16:30;13,12
27.03.2024;16:15;13,14
27.03.2024;16:00;13,14
27.03.2024;15:45;13,15
27.03.2024;15:30;13,15
27.03.2024;15:15;13,17
27.03.2024;15:00;13,18
27.03.2024;14:45;13,19
27.03.2024;14:30;13,21
27.03.2024;14:15;13,25
27.03.2024;14:00;13,27
27.03.2024;13:45;13,30
27.03.2024;13:30;13,35
27.03.2024;13:15;13,44
27.03.2024;13:00;13,11
27.03.2024;12:45;13,10
27.03.2024;12:30;13,10
27.03.2024;12:15;13,11
27.03.2024;12:00;13,11
27.03.2024;11:45;13,10
27.03.2024;11:30;13,09
27.03.2024;11:15;13,10
27.03.2024;11:00;13,10
27.03.2024;10:45;13,10
27.03.2024;10:30;13,09
27.03.2024;10:15;13,10
27.03.2024;10:00;13,10
27.03.2024;09:45;13,09
27.03.2024;09:30;13,09
27.03.2024;09:15;13,10
27.03.2024;09:00;13,10
27.03.2024;08:45;13,09
27.03.2024;08:30;13,08
27.03.2024;08:15;13,09
27.03.2024;08:00;13,10
27.03.2024;07:45;13,09
27.03.2024;07:30;13,09
27.03.2024;07:15;13,10
27.03.2024;07:00;13,10
27.03.2024;06:45;13,09
27.03.2024;06:30;13,09
27.03.2024;06:15;13,10
27.03.2024;06:00;13,10
27.03.2024;05:45;13,09
27.03.2024;05:30;13,09
27.03.2024;05:15;13,10
27.03.2024;05:00;13,10
27.03.2024;04:45;13,09
27.03.2024;04:30;13,09
27.03.2024;04:15;13,10
27.03.2024;04:00;13,10
27.03.2024;03:45;13,10
27.03.2024;03:30;13,09
27.03.2024;03:15;13,10
27.03.2024;03:00;13,11
27.03.2024;02:45;13,10
27.03.2024;02:30;13,09
27.03.2024;02:15;13,11
27.03.2024;02:00;13,11
27.03.2024;01:45;13,10
27.03.2024;01:30;13,10
27.03.2024;01:15;13,11
27.03.2024;01:00;13,11
27.03.2024;00:45;13,11
27.03.2024;00:30;13,10
27.03.2024;00:15;13,11
27.03.2024;00:00;13,11
26.03.2024;23:45;13,11
26.03.2024;23:30;13,10
26.03.2024;23:15;13,11
26.03.2024;23:00;13,11
26.03.2024;22:45;13,11
26.03.2024;22:30;13,11
26.03.2024;22:15;13,12
26.03.2024;22:00;13,12
26.03.2024;21:45;13,11
26.03.2024;21:30;13,11
26.03.2024;21:15;13,12
26.03.2024;21:00;13,12
26.03.2024;20:45;13,11
26.03.2024;20:30;13,11
26.03.2024;20:15;13,12
26.03.2024;20:00;13,12
26.03.2024;19:45;13,11
26.03.2024;19:30;13,11
26.03.2024;19:15;13,12
26.03.2024;19:00;13,12
26.03.2024;18:45;13,11
26.03.2024;18:30;13,11
26.03.2024;18:15;13,12
26.03.2024;18:00;13,12
26.03.2024;17:45;13,12
26.03.2024;17:30;13,11
26.03.2024;17:15;13,12
26.03.2024;17:00;13,13
26.03.2024;16:45;13,13
26.03.2024;16:30;13,13
26.03.2024;16:15;13,15
26.03.2024;16:00;13,16
26.03.2024;15:45;13,17
26.03.2024;15:30;13,17
26.03.2024;15:15;13,21
26.03.2024;15:00;13,22
26.03.2024;14:45;13,25
26.03.2024;14:30;13,28
26.03.2024;14:15;13,34
26.03.2024;14:00;13,10
26.03.2024;13:45;13,10
26.03.2024;13:30;13,09
26.03.2024;13:15;13,10
26.03.2024;13:00;13,10
26.03.2024;12:45;13,10
26.03.2024;12:30;13,09
26.03.2024;12:15;13,10
26.03.2024;12:00;13,10
26.03.2024;11:45;13,10
26.03.2024;11:30;13,09
26.03.2024;11:15;13,10
26.03.2024;11:00;13,10
26.03.2024;10:45;13,10
26.03.2024;10:30;13,09
26.03.2024;10:15;13,10
26.03.2024;10:00;13,10
26.03.2024;09:45;13,10
26.03.2024;09:30;13,09
26.03.2024;09:15;13,10
26.03.2024;09:00;13,10
26.03.2024;08:45;13,09
26.03.2024;08:30;13,09
26.03.2024;08:15;13,10
26.03.2024;08:00;13,10
26.03.2024;07:45;13,10
26.03.2024;07:30;13,09
26.03.2024;07:15;13,10
26.03.2024;07:00;13,10
26.03.2024;06:45;13,10
26.03.2024;06:30;13,09
26.03.2024;06:15;13,11
26.03.2024;06:00;13,11
26.03.2024;05:45;13,10
26.03.2024;05:30;13,10
26.03.2024;05:15;13,11
26.03.2024;05:00;13,11
26.03.2024;04:45;13,11
26.03.2024;04:30;13,10
26.03.2024;04:15;13,11
26.03.2024;04:00;13,11
26.03.2024;03:45;13,11
26.03.2024;03:30;13,10
26.03.2024;03:15;13,12
26.03.2024;03:00;13,11
26.03.2024;02:45;13,11
26.03.2024;02:30;13,10
26.03.2024;02:15;13,12
26.03.2024;02:00;13,12
26.03.2024;01:45;13,11
26.03.2024;01:30;13,11
26.03.2024;01:15;13,12
26.03.2024;01:00;13,12
26.03.2024;00:45;13,12
26.03.2024;00:30;13,11
26.03.2024;00:15;13,12
26.03.2024;00:00;13,12
25.03.2024;23:45;13,12
25.03.2024;23:30;13,11
25.03.2024;23:15;13,12
25.03.2024;23:00;13,12
25.03.2024;22:45;13,12
25.03.2024;22:30;13,11
25.03.2024;22:15;13,12
25.03.2024;22:00;13,12
25.03.2024;21:45;13,12
25.03.2024;21:30;13,12
25.03.2024;21:15;13,13
25.03.2024;21:00;13,12
25.03.2024;20:45;13,12
25.03.2024;20:30;13,12
25.03.2024;20:15;13,13
25.03.2024;20:00;13,13
25.03.2024;19:45;13,13
25.03.2024;19:30;13,12
25.03.2024;19:15;13,14
25.03.2024;19:00;13,14
25.03.2024;18:45;13,14
25.03.2024;18:30;13,14
25.03.2024;18:15;13,15
25.03.2024;18:00;13,16
25.03.2024;17:45;13,16
25.03.2024;17:30;13,16
25.03.2024;17:15;13,19
25.03.2024;17:00;13,20
25.03.2024;16:45;13,21
25.03.2024;16:30;13,23
25.03.2024;16:15;13,26
25.03.2024;16:00;13,29
25.03.2024;15:45;13,31
25.03.2024;15:30;13,35
25.03.2024;15:15;13,41
25.03.2024;15:00;13,12
25.03.2024;14:45;13,12
25.03.2024;14:30;13,11
25.03.2024;14:15;13,13
25.03.2024;14:00;13,12
25.03.2024;13:45;13,12
25.03.2024;13:30;13,11
25.03.2024;13:15;13,12
25.03.2024;13:00;13,12
25.03.2024;12:45;13,12
25.03.2024;12:30;13,11
25.03.2024;12:15;13,12
25.03.2024;12:00;13,12
25.03.2024;11:45;13,12
25.03.2024;11:30;13,11
25.03.2024;11:15;13,12
25.03.2024;11:00;13,12
25.03.2024;10:45;13,12
25.03.2024;10:30;13,12
25.03.2024;10:15;13,12
25.03.2024;10:00;13,12
25.03.2024;09:45;13,12
25.03.2024;09:30;13,12
25.03.2024;09:15;13,13
25.03.2024;09:00;13,13
25.03.2024;08:45;13,12
25.03.2024;08:30;13,12
25.03.2024;08:15;13,13
25.03.2024;08:00;13,13
25.03.2024;07:45;13,12
25.03.2024;07:30;13,12
25.03.2024;07:15;13,13
25.03.2024;07:00;13,13
25.03.2024;06:45;13,13
25.03.2024;06:30;13,12
25.03.2024;06:15;13,14
25.03.2024;06:00;13,14
25.03.2024;05:45;13,13
25.03.2024;05:30;13,12
25.03.2024;05:15;13,14
25.03.2024;05:00;13,14
25.03.2024;04:45;13,13
25.03.2024;04:30;13,13
25.03.2024;04:15;13,14
25.03.2024;04:00;13,14
25.03.2024;03:45;13,14
25.03.2024;03:30;13,13
25.03.2024;03:15;13,14
25.03.2024;03:00;13,14
25.03.2024;02:45;13,14
25.03.2024;02:30;13,14
25.03.2024;02:15;13,15
25.03.2024;02:00;13,14
25.03.2024;01:45;13,14
25.03.2024;01:30;13,14
25.03.2024;01:15;13,15
25.03.2024;01:00;13,15
25.03.2024;00:45;13,15
25.03.2024;00:30;13,14
25.03.2024;00:15;13,15
25.03.2024;00:00;13,15
24.03.2024;23:45;13,15
24.03.2024;23:30;13,15
24.03.2024;23:15;13,16
24.03.2024;23:00;13,16
24.03.2024;22:45;13,16
24.03.2024;22:30;13,15
24.03.2024;22:15;13,16
24.03.2024;22:00;13,16
24.03.2024;21:45;13,16
24.03.2024;21:30;13,16
24.03.2024;21:15;13,17
24.03.2024;21:00;13,17
24.03.2024;20:45;13,17
24.03.2024;20:30;13,17
24.03.2024;20:15;13,18
24.03.2024;20:00;13,18
24.03.2024;19:45;13,18
24.03.2024;19:30;13,18
24.03.2024;19:15;13,20
24.03.2024;19:00;13,20
24.03.2024;18:45;13,20
24.03.2024;18:30;13,20
24.03.2024;18:15;13,22
24.03.2024;18:00;13,23
24.03.2024;17:45;13,24
24.03.2024;17:30;13,24
24.03.2024;17:15;13,27
24.03.2024;17:00;13,28
24.03.2024;16:45;13,30
24.03.2024;16:30;13,31
24.03.2024;16:15;13,37
24.03.2024;16:00;13,72
24.03.2024;15:45;13,72
24.03.2024;15:30;13,72
24.03.2024;15:15;13,72
24.03.2024;15:00;13,73
24.03.2024;14:45;13,73
24.03.2024;14:30;13,72
24.03.2024;14:15;13,73
24.03.2024;14:00;13,73
24.03.2024;13:45;13,72
24.03.2024;13:30;13,73
24.03.2024;13:15;13,73
24.03.2024;13:00;13,73
24.03.2024;12:45;13,73
24.03.2024;12:30;13,72
24.03.2024;12:15;13,72
24.03.2024;12:00;13,73
24.03.2024;11:45;13,73
24.03.2024;11:30;13,72
24.03.2024;11:15;13,73
24.03.2024;11:00;13,73
24.03.2024;10:45;13,73
24.03.2024;10:30;13,72
24.03.2024;10:15;13,73
24.03.2024;10:00;13,73
24.03.2024;09:45;13,72
24.03.2024;09:30;13,73
24.03.2024;09:15;13,72
24.03.2024;09:00;13,72
24.03.2024;08:45;13,73
24.03.2024;08:30;13,72
24.03.2024;08:15;13,73
24.03.2024;08:00;13,73
24.03.2024;07:45;13,72
24.03.2024;07:30;13,72
24.03.2024;07:15;13,72
24.03.2024;07:00;13,72
24.03.2024;06:45;13,72
24.03.2024;06:30;13,73
24.03.2024;06:15;13,72
24.03.2024;06:00;13,73
24.03.2024;05:45;13,72
24.03.2024;05:30;13,72
24.03.2024;05:15;13,72
24.03.2024;05:00;13,72
24.03.2024;04:45;13,72
24.03.2024;04:30;13,72
24.03.2024;04:15;13,72
24.03.2024;04:00;13,72
24.03.2024;03:45;13,73
24.03.2024;03:30;13,72
24.03.2024;03:15;13,72
24.03.2024;03:00;13,72
24.03.2024;02:45;13,72
24.03.2024;02:30;13,72
24.03.2024;02:15;13,72
24.03.2024;02:00;13,72
24.03.2024;01:45;13,72
24.03.2024;01:30;13,72
24.03.2024;01:15;13,73
24.03.2024;01:00;13,72
24.03.2024;00:45;13,72
24.03.2024;00:30;13,72
24.03.2024;00:15;13,72
24.03.2024;00:00;13,72
23.03.2024;23:45;13,72
23.03.2024;23:30;13,72
23.03.2024;23:15;13,72
23.03.2024;23:00;13,72
23.03.2024;22:45;13,72
23.03.2024;22:30;13,72
23.03.2024;22:15;13,72
23.03.2024;22:00;13,72
23.03.2024;21:45;13,72
23.03.2024;21:30;13,72
23.03.2024;21:15;13,72
23.03.2024;21:00;13,72
23.03.2024;20:45;13,72
23.03.2024;20:30;13,72
23.03.2024;20:15;13,72
23.03.2024;20:00;13,72
23.03.2024;19:45;13,72
23.03.2024;19:30;13,72
23.03.2024;19:15;13,72
23.03.2024;19:00;13,73
23.03.2024;18:45;13,72
23.03.2024;18:30;13,72
23.03.2024;18:15;13,72
23.03.2024;18:00;13,72
23.03.2024;17:45;13,72
23.03.2024;17:30;13,72
23.03.2024;17:15;13,72
23.03.2024;17:00;13,72
23.03.2024;16:45;13,72
23.03.2024;16:30;13,72
23.03.2024;16:15;13,72
23.03.2024;16:00;13,72
23.03.2024;15:45;13,72
23.03.2024;15:30;13,72
23.03.2024;15:15;13,72
23.03.2024;15:00;13,72
23.03.2024;14:45;13,72
23.03.2024;14:30;13,72
23.03.2024;14:15;13,72
23.03.2024;14:00;13,72
23.03.2024;13:45;13,72
23.03.2024;13:30;13,72
23.03.2024;13:15;13,72
23.03.2024;13:00;13,72
23.03.2024;12:45;13,72
23.03.2024;12:30;13,72
23.03.2024;12:15;13,72
23.03.2024;12:00;13,72
23.03.2024;11:45;13,72
23.03.2024;11:30;13,72
23.03.2024;11:15;13,72
23.03.2024;11:00;13,72
23.03.2024;10:45;13,72
23.03.2024;10:30;13,72
23.03.2024;10:15;13,72
23.03.2024;10:00;13,72
23.03.2024;09:45;13,72
23.03.2024;09:30;13,72
23.03.2024;09:15;13,72
23.03.2024;09:00;13,72
23.03.2024;08:45;13,72
23.03.2024;08:30;13,72
23.03.2024;08:15;13,72
23.03.2024;08:00;13,72
23.03.2024;07:45;13,72
23.03.2024;07:30;13,72
23.03.2024;07:15;13,72
23.03.2024;07:00;13,72
23.03.2024;06:45;13,72
23.03.2024;06:30;13,72
23.03.2024;06:15;13,72
23.03.2024;06:00;13,72
23.03.2024;05:45;13,72
23.03.2024;05:30;13,72
23.03.2024;05:15;13,65
23.03.2024;05:00;13,65
23.03.2024;04:45;13,65
23.03.2024;04:30;13,65
23.03.2024;04:15;13,72
23.03.2024;04:00;13,72
23.03.2024;03:45;13,72
23.03.2024;03:30;13,72
23.03.2024;03:15;13,72
23.03.2024;03:00;13,72
23.03.2024;02:45;13,72
23.03.2024;02:30;13,72
23.03.2024;02:15;13,72
23.03.2024;02:00;13,72
23.03.2024;01:45;13,72
23.03.2024;01:30;13,72
23.03.2024;01:15;13,72
23.03.2024;01:00;13,72
23.03.2024;00:45;13,71
23.03.2024;00:30;13,72
23.03.2024;00:15;13,72
23.03.2024;00:00;13,72
22.03.2024;23:45;13,71
22.03.2024;23:30;13,71
22.03.2024;23:15;13,71
22.03.2024;23:00;13,71
22.03.2024;22:45;13,71
22.03.2024;22:30;13,72
22.03.2024;22:15;13,72
22.03.2024;22:00;13,72
22.03.2024;21:45;13,72
22.03.2024;21:30;13,72
22.03.2024;21:15;13,71
22.03.2024;21:00;13,72
22.03.2024;20:45;13,72
22.03.2024;20:30;13,72
22.03.2024;20:15;13,72
22.03.2024;20:00;13,72
22.03.2024;19:45;13,72
22.03.2024;19:30;13,72
22.03.2024;19:15;13,72
22.03.2024;19:00;13,72
22.03.2024;18:45;13,72
22.03.2024;18:30;13,72
22.03.2024;18:15;13,72
22.03.2024;18:00;13,72
22.03.2024;17:45;13,72
22.03.2024;17:30;13,72
22.03.2024;17:15;13,72
22.03.2024;17:00;13,72
22.03.2024;16:45;13,72
22.03.2024;16:30;13,72
22.03.2024;16:15;13,72
22.03.2024;16:00;13,72
22.03.2024;15:45;13,72
22.03.2024;15:30;13,72
22.03.2024;15:15;13,72
22.03.2024;15:00;13,72
22.03.2024;14:45;13,72
22.03.2024;14:30;13,72
22.03.2024;14:15;13,72
22.03.2024;14:00;13,72
22.03.2024;13:45;13,72
22.03.2024;13:30;13,71
22.03.2024;13:15;13,72
22.03.2024;13:00;13,72
22.03.2024;12:45;13,72
22.03.2024;12:30;13,72
22.03.2024;12:15;13,72
22.03.2024;12:00;13,72
22.03.2024;11:45;13,72
22.03.2024;11:30;13,72
22.03.2024;11:15;13,72
22.03.2024;11:00;13,72
22.03.2024;10:45;13,72
22.03.2024;10:30;13,72
22.03.2024;10:15;13,72
22.03.2024;10:00;13,72
22.03.2024;09:45;13,72
22.03.2024;09:30;13,72
22.03.2024;09:15;13,72
22.03.2024;09:00;13,72
22.03.2024;08:45;13,72
22.03.2024;08:30;13,72
22.03.2024;08:15;13,72
22.03.2024;08:00;13,72
22.03.2024;07:45;13,72
22.03.2024;07:30;13,71
22.03.2024;07:15;13,72
22.03.2024;07:00;13,71
22.03.2024;06:45;13,71
22.03.2024;06:30;13,72
22.03.2024;06:15;13,71
22.03.2024;06:00;13,71
22.03.2024;05:45;13,71
22.03.2024;05:30;13,71
22.03.2024;05:15;13,71
22.03.2024;05:00;13,71
22.03.2024;04:45;13,71
22.03.2024;04:30;13,71
22.03.2024;04:15;13,72
22.03.2024;04:00;13,71
22.03.2024;03:45;13,71
22.03.2024;03:30;13,71
22.03.2024;03:15;13,71
22.03.2024;03:00;13,71
22.03.2024;02:45;13,71
22.03.2024;02:30;13,71
22.03.2024;02:15;13,71
22.03.2024;02:00;13,71
22.03.2024;01:45;13,71
22.03.2024;01:30;13,71
22.03.2024;01:15;13,71
22.03.2024;01:00;13,71
22.03.2024;00:45;13,71
22.03.2024;00:30;13,71
22.03.2024;00:15;13,71
22.03.2024;00:00;13,71
21.03.2024;23:45;13,71
21.03.2024;23:30;13,71
21.03.2024;23:15;13,71
21.03.2024;23:00;13,71
21.03.2024;22:45;13,71
21.03.2024;22:30;13,71
21.03.2024;22:15;13,71
21.03.2024;22:00;13,71
21.03.2024;21:45;13,71
21.03.2024;21:30;13,71
21.03.2024;21:15;13,71
21.03.2024;21:00;13,71
21.03.2024;20:45;13,71
21.03.2024;20:30;13,71
21.03.2024;20:15;13,71
21.03.2024;20:00;13,71
21.03.2024;19:45;13,71
21.03.2024;19:30;13,71
21.03.2024;19:15;13,71
21.03.2024;19:00;13,71
21.03.2024;18:45;13,71
21.03.2024;18:30;13,71
21.03.2024;18:15;13,71
21.03.2024;18:00;13,71
21.03.2024;17:45;13,71
21.03.2024;17:30;13,71
21.03.2024;17:15;13,71
21.03.2024;17:00;13,71
21.03.2024;16:45;13,71
21.03.2024;16:30;13,71
21.03.2024;16:15;13,71
21.03.2024;16:00;13,71
21.03.2024;15:45;13,71
21.03.2024;15:30;13,71
21.03.2024;15:15;13,71
21.03.2024;15:00;13,71
21.03.2024;14:45;13,71
21.03.2024;14:30;13,71
21.03.2024;14:15;13,71
21.03.2024;14:00;13,71
21.03.2024;13:45;13,71
21.03.2024;13:30;13,71
21.03.2024;13:15;13,70
21.03.2024;13:00;13,71
21.03.2024;12:45;13,71
21.03.2024;12:30;13,71
21.03.2024;12:15;13,71
21.03.2024;12:00;13,71
21.03.2024;11:45;13,70
21.03.2024;11:30;13,71
21.03.2024;11:15;13,71
21.03.2024;11:00;13,70
21.03.2024;10:45;13,71
21.03.2024;10:30;13,71
21.03.2024;10:15;13,71
21.03.2024;10:00;13,71
21.03.2024;09:45;13,70
21.03.2024;09:30;13,70
21.03.2024;09:15;13,70
21.03.2024;09:00;13,70
21.03.2024;08:45;13,70
21.03.2024;08:30;13,70
21.03.2024;08:15;13,70
21.03.2024;08:00;13,70
21.03.2024;07:45;13,70
21.03.2024;07:30;13,71
21.03.2024;07:15;13,70
21.03.2024;07:00;13,70
21.03.2024;06:45;13,70
21.03.2024;06:30;13,70
21.03.2024;06:15;13,70
21.03.2024;06:00;13,70
21.03.2024;05:45;13,70
21.03.2024;05:30;13,70
21.03.2024;05:15;13,70
21.03.2024;05:00;13,70
21.03.2024;04:45;13,70
21.03.2024;04:30;13,70
21.03.2024;04:15;13,70
21.03.2024;04:00;13,70
21.03.2024;03:45;13,70
21.03.2024;03:30;13,70
21.03.2024;03:15;13,70
21.03.2024;03:00;13,70
21.03.2024;02:45;13,70
21.03.2024;02:30;13,70
21.03.2024;02:15;13,70
21.03.2024;02:00;13,70
21.03.2024;01:45;13,70
21.03.2024;01:30;13,70
21.03.2024;01:15;13,70
21.03.2024;01:00;13,70
21.03.2024;00:45;13,70
21.03.2024;00:30;13,70
21.03.2024;00:15;13,70
21.03.2024;00:00;13,70
20.03.2024;23:45;13,70
20.03.2024;23:30;13,70
20.03.2024;23:15;13,70
20.03.2024;23:00;13,70
20.03.2024;22:45;13,70
20.03.2024;22:30;13,70
20.03.2024;22:15;13,70
20.03.2024;22:00;13,70
20.03.2024;21:45;13,70
20.03.2024;21:30;13,70
20.03.2024;21:15;13,70
20.03.2024;21:00;13,70
20.03.2024;20:45;13,70
20.03.2024;20:30;13,70
20.03.2024;20:15;13,70
20.03.2024;20:00;13,70
20.03.2024;19:45;13,70
20.03.2024;19:30;13,70
20.03.2024;19:15;13,70
20.03.2024;19:00;13,70
20.03.2024;18:45;13,70
20.03.2024;18:30;13,70
20.03.2024;18:15;13,70
20.03.2024;18:00;13,70
20.03.2024;17:45;13,70
20.03.2024;17:30;13,70
20.03.2024;17:15;13,70
20.03.2024;17:00;13,70
20.03.2024;16:45;13,70
20.03.2024;16:30;13,70
20.03.2024;16:15;13,70
20.03.2024;16:00;13,70
20.03.2024;15:45;13,70
20.03.2024;15:30;13,70
20.03.2024;15:15;13,70
20.03.2024;15:00;13,70
20.03.2024;14:45;13,70
20.03.2024;14:30;13,70
20.03.2024;14:15;13,70
20.03.2024;14:00;13,70
20.03.2024;13:45;13,70
20.03.2024;13:30;13,70
20.03.2024;13:15;13,70
20.03.2024;13:00;13,70
20.03.2024;12:45;13,70
20.03.2024;12:30;13,70
20.03.2024;12:15;13,70
20.03.2024;12:00;13,70
20.03.2024;11:45;13,70
20.03.2024;11:30;13,70
20.03.2024;11:15;13,70
20.03.2024;11:00;13,70
20.03.2024;10:45;13,70
20.03.2024;10:30;13,70
20.03.2024;10:15;13,69
20.03.2024;10:00;13,70
20.03.2024;09:45;13,69
20.03.2024;09:30;13,69
20.03.2024;09:15;13,69
20.03.2024;09:00;13,70
20.03.2024;08:45;13,69
20.03.2024;08:30;13,70
20.03.2024;08:15;13,69
20.03.2024;08:00;13,69
20.03.2024;07:45;13,69
20.03.2024;07:30;13,70
20.03.2024;07:15;13,69
20.03.2024;07:00;13,69
20.03.2024;06:45;13,69
20.03.2024;06:30;13,70
20.03.2024;06:15;13,69
20.03.2024;06:00;13,69
20.03.2024;05:45;13,69
20.03.2024;05:30;13,69
20.03.2024;05:15;13,69
20.03.2024;05:00;13,69
20.03.2024;04:45;13,69
20.03.2024;04:30;13,69
20.03.2024;04:15;13,69
20.03.2024;04:00;13,69
20.03.2024;03:45;13,69
20.03.2024;03:30;13,69
20.03.2024;03:15;13,69
20.03.2024;03:00;13,69
20.03.2024;02:45;13,69
20.03.2024;02:30;13,69
20.03.2024;02:15;13,69
20.03.2024;02:00;13,69
20.03.2024;01:45;13,69
20.03.2024;01:30;13,69
20.03.2024;01:15;13,69
20.03.2024;01:00;13,69
20.03.2024;00:45;13,69
20.03.2024;00:30;13,69
20.03.2024;00:15;13,69
20.03.2024;00:00;13,69
19.03.2024;23:45;13,69
19.03.2024;23:30;13,69
19.03.2024;23:15;13,69
19.03.2024;23:00;13,69
19.03.2024;22:45;13,69
19.03.2024;22:30;13,69
19.03.2024;22:15;13,69
19.03.2024;22:00;13,69
19.03.2024;21:45;13,69
19.03.2024;21:30;13,69
19.03.2024;21:15;13,69
19.03.2024;21:00;13,69
19.03.2024;20:45;13,69
19.03.2024;20:30;13,69
19.03.2024;20:15;13,69
19.03.2024;20:00;13,68
19.03.2024;19:45;13,69
19.03.2024;19:30;13,69
19.03.2024;19:15;13,69
19.03.2024;19:00;13,68
19.03.2024;18:45;13,69
19.03.2024;18:30;13,69
19.03.2024;18:15;13,69
19.03.2024;18:00;13,69
19.03.2024;17:45;13,69
19.03.2024;17:30;13,69
19.03.2024;17:15;13,69
19.03.2024;17:00;13,69
19.03.2024;16:45;13,69
19.03.2024;16:30;13,69
19.03.2024;16:15;13,69
19.03.2024;16:00;13,69
19.03.2024;15:45;13,69
19.03.2024;15:30;13,69
19.03.2024;15:15;13,69
19.03.2024;15:00;13,69
19.03.2024;14:45;13,69
19.03.2024;14:30;13,69
19.03.2024;14:15;13,69
19.03.2024;14:00;13,69
19.03.2024;13:45;13,69
19.03.2024;13:30;13,69
19.03.2024;13:15;13,69
19.03.2024;13:00;13,69
19.03.2024;12:45;13,69
19.03.2024;12:30;13,69
19.03.2024;12:15;13,69
19.03.2024;12:00;13,69
19.03.2024;11:45;13,69
19.03.2024;11:30;13,69
19.03.2024;11:15;13,69
19.03.2024;11:00;13,69
19.03.2024;10:45;13,69
19.03.2024;10:30;13,69
19.03.2024;10:15;13,69
19.03.2024;10:00;13,69
19.03.2024;09:45;13,69
19.03.2024;09:30;13,69
19.03.2024;09:15;13,69
19.03.2024;09:00;13,69
19.03.2024;08:45;13,69
19.03.2024;08:30;13,69
19.03.2024;08:15;13,69
19.03.2024;08:00;13,69
19.03.2024;07:45;13,69
19.03.2024;07:30;13,69
19.03.2024;07:15;13,69
19.03.2024;07:00;13,69
19.03.2024;06:45;13,69
19.03.2024;06:30;13,69
19.03.2024;06:15;13,69
19.03.2024;06:00;13,69
19.03.2024;05:45;13,69
19.03.2024;05:30;13,69
19.03.2024;05:15;13,69
19.03.2024;05:00;13,69
19.03.2024;04:45;13,69
19.03.2024;04:30;13,69
19.03.2024;04:15;13,69
19.03.2024;04:00;13,69
19.03.2024;03:45;13,69
19.03.2024;03:30;13,69
19.03.2024;03:15;13,69
19.03.2024;03:00;13,68
19.03.2024;02:45;13,68
19.03.2024;02:30;13,68
19.03.2024;02:15;13,69
19.03.2024;02:00;13,68
19.03.2024;01:45;13,68
19.03.2024;01:30;13,68
19.03.2024;01:15;13,68
19.03.2024;01:00;13,68
19.03.2024;00:45;13,68
19.03.2024;00:30;13,68
19.03.2024;00:15;13,68
19.03.2024;00:00;13,68
18.03.2024;23:45;13,68
18.03.2024;23:30;13,68
18.03.2024;23:15;13,68
18.03.2024;23:00;13,68
18.03.2024;22:45;13,68
18.03.2024;22:30;13,68